Wind_Speed
7 7 7 8 9 8 8 9 11 10 9 9 9 10 10 10 11 14 16 14 12 10 10 12 13 12 12 12 12 11 10 10 10 10 11 9 9 10 10 11 11 11 12 14 16 17 17 17 15 12 10 8 6 5 4 6 8 10 12 12 11 11 11 10 9 9 8 8 9 9 9 9 11 12
8 7 7 9 10 10 10 11 12 12 12 13 12 12 12 11 10 11 14 15 13 11 10 11 12 12 12 12 12 12 11 10 10 10 11 11 11 10 10 10 10 9 11 13 15 16 16 16 15 12 10 9 6 5 4 3 5 7 9 11 11 10 10 10 9 8 7 7 7 8 9 8 9 11
8 9 8 9 9 11 12 12 12 13 13 14 13 13 12 11 11 9 11 14 13 11 11 10 10 12 12 12 13 12 11 9 9 10 11 12 12 11 9 10 9 9 11 13 14 16 15 15 15 12 11 10 7 5 5 4 3 4 6 9 10 10 9 9 9 8 7 6 6 7 8 8 8 9
8 9 9 9 10 11 12 12 13 12 12 11 11 10 9 9 10 9 9 12 12 9 10 11 11 12 12 12 13 12 10 8 9 10 12 13 13 12 11 10 9 9 12 13 15 16 15 14 14 13 12 11 8 6 5 5 3 3 4 5 7 9 9 7 7 7 7 5 5 5 6 7 8 8
8 9 9 10 11 12 12 12 12 11 10 10 9 8 8 8 9 10 10 12 13 10 9 11 11 12 13 12 12 12 11 9 9 10 12 13 13 13 12 11 11 11 12 14 15 16 16 14 13 13 13 12 10 7 6 5 4 3 2 3 4 7 8 7 5 5 6 5 4 4 4 5 7 8
9 8 8 8 9 10 10 10 10 10 9 9 9 9 9 7 7 10 10 11 13 13 11 11 11 12 14 13 12 13 13 11 10 10 12 13 13 13 13 13 13 13 13 15 16 16 16 15 12 12 12 12 12 9 7 6 5 3 3 2 3 4 5 6 5 3 4 4 4 3 4 4 5 6
8 7 7 7 8 8 8 8 8 9 9 9 10 10 9 8 7 9 10 10 13 15 14 13 13 13 14 13 13 13 13 12 11 10 10 12 14 14 14 14 15 15 15 15 16 16 16 16 13 11 11 11 11 11 9 7 6 4 4 4 3 3 3 4 4 2 1 2 2 2 3 3 5 5
8 7 6 6 6 5 6 6 7 8 8 8 9 9 10 10 9 8 9 10 12 15 16 16 15 14 13 12 11 12 12 11 10 10 10 11 13 14 16 17 16 16 16 16 16 16 16 16 14 12 11 10 10 11 13 10 6 5 5 5 5 5 4 4 3 1 1 1 1 1 2 3 4 5
6 5 5 5 5 5 5 5 5 6 8 8 8 9 9 10 10 9 10 11 13 15 17 17 15 13 13 12 10 11 12 11 10 10 10 10 11 13 15 16 15 15 16 16 16 16 16 15 14 13 11 10 9 10 13 13 9 6 5 4 5 5 5 5 3 2 2 2 2 2 2 2 3 5
5 4 5 5 5 5 6 5 5 6 8 9 9 9 10 11 12 12 13 14 15 17 18 18 17 15 15 14 12 11 12 12 11 11 10 10 10 12 14 14 15 15 15 16 16 16 16 15 13 12 11 11 10 10 13 13 10 7 5 4 4 4 5 6 5 4 4 4 4 4 4 4 4 4
7 5 5 5 5 6 7 7 7 7 8 10 10 10 12 13 14 16 17 17 18 19 19 20 20 19 18 17 15 14 14 14 14 13 13 13 11 12 13 13 14 15 16 16 15 15 15 14 13 12 11 11 10 10 12 13 12 10 7 6 5 5 6 6 7 6 6 6 6 6 6 6 5 5
7 7 6 6 6 8 8 8 9 9 10 11 11 12 13 14 16 17 18 19 20 21 22 22 22 22 21 20 19 18 17 17 15 15 16 17 15 15 15 13 13 15 16 15 14 13 13 13 13 13 13 12 11 10 11 12 12 12 10 8 7 7 7 7 8 8 8 8 8 8 7 7 7 6
7 7 7 7 8 9 9 10 11 11 12 13 13 14 14 15 16 17 18 20 21 21 22 23 23 24 24 23 22 22 20 18 17 16 18 19 18 18 18 16 14 14 14 14 14 13 12 13 14 15 14 13 12 11 11 11 12 13 13 11 10 9 9 9 9 9 9 10 11 11 10 10 9 9
8 8 8 8 8 9 10 11 12 12 14 15 15 16 16 16 18 19 21 21 21 21 22 23 23 24 25 25 24 24 22 20 19 19 20 21 21 21 22 19 16 15 14 14 14 14 13 14 16 16 16 14 12 12 12 11 12 13 14 13 11 10 10 10 10 10 11 12 13 13 13 13 13 12
9 9 9 9 10 11 12 13 14 15 16 17 17 18 18 19 20 21 23 24 23 23 23 24 23 24 25 26 24 23 23 22 21 21 22 23 23 23 23 23 20 18 16 15 16 16 16 17 17 17 16 15 14 13 12 12 11 12 14 13 12 11 11 10 10 11 11 12 13 14 14 15 15 14
12 11 10 11 12 13 14 15 16 16 17 18 19 19 19 19 20 21 23 25 25 24 25 25 25 25 25 26 25 24 24 23 23 23 23 23 25 25 25 25 24 21 20 19 18 18 18 18 18 17 16 16 15 14 13 12 11 11 11 11 10 10 10 10 9 9 9 10 11 12 12 13 15 15
13 12 12 13 13 14 14 15 16 18 18 18 19 19 19 19 20 20 21 21 22 22 23 24 25 25 26 27 27 26 26 26 26 26 27 26 26 26 26 27 27 23 22 21 21 20 20 19 19 18 17 16 16 15 14 13 12 10 7 6 7 7 8 9 8 8 6 6 7 7 8 9 12 14
14 13 14 14 14 14 15 16 16 17 18 18 18 16 16 16 16 16 16 16 16 17 18 20 21 22 23 25 26 26 26 27 27 27 27 26 25 25 25 27 27 24 22 22 21 21 21 20 18 17 16 16 16 15 15 14 12 10 7 4 5 6 7 7 8 8 7 6 5 5 6 7 8 9
15 15 15 15 14 14 15 15 16 16 16 15 14 12 11 11 12 12 12 12 13 13 15 16 18 20 21 23 25 25 26 27 27 27 27 26 25 25 26 27 26 24 23 21 21 24 24 21 18 16 15 15 15 16 17 16 13 10 8 6 3 4 5 7 7 8 7 7 6 5 6 6 7 7
15 15 15 15 14 13 13 13 13 13 12 11 10 9 8 9 10 11 11 12 12 13 14 15 17 19 20 21 23 23 23 23 22 23 22 21 21 22 24 25 23 20 18 17 20 24 23 20 18 16 15 16 16 18 21 20 16 11 7 6 4 3 3 5 7 8 8 7 7 6 6 6 6 7
15 14 13 12 11 10 10 9 9 9 8 7 7 6 6 7 7 8 8 9 9 10 11 12 13 15 15 16 18 18 17 16 17 17 17 15 15 16 18 20 18 16 15 15 18 21 19 16 16 16 15 17 18 20 21 19 15 10 6 5 5 4 4 5 6 7 7 8 8 7 7 6 7 8
13 11 9 8 7 6 6 5 5 5 5 5 5 6 6 6 6 6 7 8 8 8 9 10 12 13 14 15 16 16 13 12 14 16 16 16 16 16 17 18 18 18 17 15 17 20 18 14 14 14 15 15 18 19 17 15 13 10 7 6 6 5 4 4 5 6 7 8 8 8 7 7 7 8
8 6 4 3 2 2 2 3 4 5 6 6 7 7 7 8 9 9 9 10 10 10 11 13 14 15 15 15 16 17 15 12 11 13 14 15 16 17 18 18 17 16 15 15 16 17 13 9 9 11 12 12 14 16 15 14 12 11 9 8 7 5 3 3 4 5 6 7 8 9 9 9 8 9
5 4 2 2 3 4 5 5 6 7 8 9 9 9 9 11 13 13 13 13 13 14 15 15 15 15 15 15 16 18 18 16 15 14 13 12 12 13 14 14 13 13 13 13 13 12 8 6 7 8 9 10 10 10 12 13 13 12 11 10 9 7 6 5 4 5 5 6 7 7 7 8 9 10
7 6 5 6 7 8 8 8 9 9 10 10 10 10 12 15 16 16 16 16 14 13 13 14 15 15 15 16 17 18 18 19 19 18 17 16 15 15 15 15 14 14 14 14 12 10 9 8 7 7 8 9 10 10 10 12 14 14 13 11 10 8 8 8 8 7 7 7 5 4 5 5 6 8
8 8 8 9 10 10 11 10 10 10 10 10 11 12 14 16 17 18 18 16 14 11 10 12 14 16 17 18 19 20 21 21 20 19 18 17 17 17 17 17 17 16 16 17 15 12 10 9 9 10 9 9 9 9 7 9 13 14 13 11 9 7 7 8 7 6 8 7 6 6 7 6 6 6
8 7 9 10 11 12 12 11 10 10 9 9 9 12 13 15 16 18 18 17 14 10 9 11 14 17 18 19 20 20 21 20 19 18 17 17 17 16 16 16 16 15 15 16 15 13 10 9 8 8 8 9 8 7 6 7 9 12 14 13 10 7 7 8 6 4 6 9 8 8 9 8 8 7
8 7 9 12 13 12 12 11 10 9 7 7 8 11 12 13 16 18 19 18 15 12 11 14 16 18 19 20 20 19 18 16 15 14 14 14 14 15 15 15 14 13 12 12 12 12 10 9 8 9 10 9 8 9 10 10 9 11 14 15 13 12 12 13 10 7 8 11 11 11 10 10 9 9
8 8 10 12 13 12 12 11 9 7 5 6 7 8 10 12 14 18 20 19 17 14 14 15 16 17 17 18 18 17 16 15 14 13 12 12 11 11 12 13 14 14 13 12 11 10 11 11 11 11 11 8 6 5 7 8 7 7 9 11 13 14 14 14 13 12 12 14 15 14 14 13 12 11
9 10 11 12 12 12 12 11 8 5 4 4 3 5 8 11 14 18 19 18 16 14 14 13 13 14 14 14 14 14 14 15 15 15 15 14 14 14 13 13 13 13 14 13 11 11 11 11 11 11 10 8 6 4 5 7 8 7 7 8 9 11 12 13 13 14 16 17 18 19 18 17 14 13
11 12 12 11 10 10 10 9 6 3 3 3 1 4 7 11 14 17 17 16 15 14 14 13 12 12 13 14 15 16 17 16 15 16 16 16 17 16 16 15 13 12 12 12 11 11 11 11 11 11 11 11 9 8 9 10 11 11 11 11 11 11 12 12 12 13 16 18 20 21 21 18 15 14
9 9 9 9 9 10 9 8 7 5 5 4 1 3 6 9 12 14 15 16 16 15 15 16 16 16 17 18 19 20 20 19 18 17 17 17 17 17 16 16 15 14 13 13 13 13 13 14 14 13 13 14 15 15 15 15 14 14 13 13 13 13 12 10 10 11 14 17 20 21 21 19 17 17
7 8 8 9 8 9 10 9 7 6 5 3 1 5 7 9 11 13 16 18 18 18 19 21 22 22 21 21 21 21 21 21 20 20 19 18 17 17 17 16 16 16 17 16 16 16 16 16 17 18 18 18 18 19 20 20 18 17 16 15 15 14 13 12 11 12 13 16 17 18 19 19 18 18
7 7 8 8 8 8 9 8 7 5 3 1 3 6 8 10 13 15 17 18 19 20 22 23 23 23 24 23 23 23 24 25 24 22 21 19 18 17 18 17 17 17 17 18 18 19 19 18 19 20 21 21 21 20 19 18 17 17 16 16 15 15 13 12 11 11 12 14 15 15 17 17 17 16
7 7 8 9 9 8 7 6 5 3 2 4 6 8 10 13 15 16 17 17 19 20 21 22 22 23 24 24 24 25 26 27 26 24 22 21 20 19 19 19 19 18 19 19 20 21 21 22 22 23 24 23 22 20 16 13 13 13 12 13 13 13 13 13 13 12 13 13 13 14 14 15 14 13
8 8 8 8 7 5 4 3 3 4 5 6 8 10 12 14 15 15 15 17 19 20 20 21 21 22 23 23 24 26 26 27 27 27 26 24 23 23 22 22 22 21 20 19 19 20 20 20 20 21 22 23 23 21 17 14 13 13 12 11 12 12 12 12 13 12 13 13 12 11 11 12 11 9
7 7 6 6 5 4 4 4 5 6 7 8 10 11 13 14 14 14 15 18 19 19 19 20 20 21 22 23 24 25 26 26 27 27 27 27 26 25 24 23 23 23 21 19 17 17 17 17 17 18 20 21 22 23 21 17 12 11 12 12 12 12 12 11 10 9 9 9 9 8 7 8 7 5
7 7 7 6 5 5 5 6 7 8 10 11 12 12 13 14 14 14 15 18 19 19 19 20 20 21 22 23 23 25 25 26 26 26 27 26 26 25 24 23 22 22 21 19 17 15 15 15 15 16 17 18 20 21 22 18 10 5 6 8 8 8 10 10 8 5 3 4 5 4 4 5 5 3
7 7 7 6 5 5 6 6 8 9 10 11 12 12 13 13 13 13 16 18 18 18 18 19 19 20 20 20 22 23 24 24 25 25 25 25 25 25 24 23 23 22 21 19 17 15 14 13 13 12 12 15 16 17 18 17 9 4 5 6 6 6 5 4 3 1 1 3 4 3 2 3 3 3
6 5 5 5 5 5 6 7 8 10 11 11 11 12 12 12 12 13 16 17 17 17 18 18 18 19 20 21 22 23 24 24 24 24 23 23 23 23 23 23 23 23 22 21 18 16 14 13 13 12 12 12 13 14 14 13 8 4 3 4 4 5 5 3 2 1 3 3 3 4 4 3 2 2
3 2 2 2 4 5 6 8 9 11 12 12 12 12 12 12 13 14 16 17 17 17 17 18 18 20 21 22 24 25 25 26 25 24 23 23 23 22 21 21 21 21 21 20 18 16 14 14 14 14 14 13 12 12 12 12 10 9 7 6 4 4 5 4 4 3 2 2 2 3 4 5 4 4
2 2 1 2 3 5 7 8 9 9 9 10 10 10 10 11 12 12 12 13 13 14 16 17 18 20 21 22 23 24 25 26 25 24 24 23 23 22 21 20 20 19 19 18 16 14 13 13 13 12 12 11 11 11 11 12 13 13 13 11 8 6 5 5 4 4 3 2 3 3 2 3 5 5
1 2 2 3 4 5 6 7 7 7 7 7 8 8 9 10 10 11 11 13 14 15 17 18 19 21 21 22 23 24 24 24 24 23 22 21 20 20 19 19 18 18 17 17 16 15 15 14 13 11 10 10 11 10 9 10 10 11 11 10 7 5 4 4 5 5 6 5 4 3 2 2 3 4
1 1 2 3 4 5 5 6 6 6 7 8 8 9 11 12 13 14 15 16 17 18 19 20 22 22 23 22 22 23 23 23 22 21 20 18 17 17 17 17 17 17 17 17 18 18 17 16 15 14 12 11 11 10 8 8 8 9 9 9 8 6 4 4 5 6 7 7 7 6 4 5 5 4
1 1 2 3 4 5 6 6 7 8 9 10 11 12 13 14 15 16 17 18 19 20 22 23 23 23 23 22 22 23 22 21 20 19 17 16 15 15 16 16 16 16 17 17 18 18 18 17 16 16 14 12 11 9 7 7 7 7 8 9 9 8 6 4 4 5 6 7 8 7 5 6 6 4
Wind_Direction
252 255 251 250 260 280 292 289 282 279 281 288 293 287 284 291 300 308 313 316 323 327 324 320 320 326 325 321 323 318 312 308 297 286 283 287 303 312 318 335 347 345 344 350 351 352 0 1 355 350 342 332 320 321 345 6 12 14 15 19 25 28 31 38 46 50 55 63 70 77 87 99 106 109
264 256 240 241 256 274 282 284 285 286 286 285 287 290 289 287 289 298 305 307 314 320 323 323 323 325 324 321 324 322 312 301 288 279 276 278 294 306 315 332 340 338 341 346 344 346 356 360 357 351 343 335 320 309 315 343 9 15 17 19 22 26 28 31 40 50 57 64 74 81 88 97 110 117
253 240 231 238 257 273 279 286 291 291 285 279 283 291 291 284 279 283 295 300 307 314 317 322 326 326 326 325 326 327 321 305 288 276 271 276 289 300 311 325 329 328 334 337 335 338 347 357 1 358 348 339 325 307 299 305 346 9 17 20 21 25 28 28 33 44 56 65 75 86 95 101 110 120
241 239 240 249 259 269 277 285 290 288 284 284 289 293 293 288 281 276 283 292 300 311 314 318 326 326 325 325 324 325 323 310 293 281 277 279 286 294 302 312 318 320 325 327 327 332 338 348 358 3 358 348 333 311 298 297 305 338 6 17 20 24 27 27 30 38 49 64 76 86 100 109 113 122
259 261 260 262 266 271 277 283 287 287 287 291 295 297 297 293 283 279 280 288 298 309 313 316 323 324 324 325 321 316 315 312 301 288 282 281 282 289 297 301 305 310 314 316 320 327 332 335 346 359 3 357 346 325 302 298 295 295 329 360 10 18 23 25 30 36 44 58 77 90 104 116 123 129
269 272 273 273 274 275 279 282 287 290 289 290 296 301 302 299 290 287 285 287 296 305 312 314 319 323 323 324 321 315 313 312 309 297 285 279 278 284 292 297 301 303 302 306 312 320 326 327 331 347 360 1 357 347 320 301 297 284 278 304 335 356 13 22 29 39 43 52 69 92 113 124 133 140
262 267 272 275 273 274 279 278 282 285 283 286 295 303 306 304 298 293 290 291 296 304 310 314 317 321 322 324 325 321 318 316 315 308 293 283 281 285 292 298 302 300 296 300 305 310 317 321 322 330 348 359 4 6 356 327 305 289 271 268 282 305 336 3 19 35 63 64 66 85 120 143 148 153
256 260 264 267 267 272 277 273 273 278 281 287 295 300 303 301 297 294 294 301 305 307 311 313 315 317 318 322 326 326 323 321 319 316 306 293 289 292 297 303 304 299 296 297 300 303 308 316 318 318 330 349 358 4 4 354 329 302 287 276 274 283 296 317 344 16 134 144 126 113 127 152 162 169
245 251 260 266 270 273 274 273 277 281 283 286 290 291 290 289 290 291 296 304 307 308 310 310 309 310 310 313 321 325 322 319 319 318 314 307 304 305 307 309 308 302 298 295 296 298 299 306 313 310 314 331 340 345 354 355 342 318 299 289 281 279 283 290 292 264 210 192 185 186 186 175 174 180
241 254 267 271 273 270 265 263 274 287 291 291 288 283 281 283 287 291 295 301 302 304 305 303 302 306 307 306 309 316 316 314 314 313 309 309 314 315 314 314 312 307 302 295 292 295 295 298 305 304 305 317 325 333 345 350 346 330 310 300 290 277 274 278 275 253 231 219 209 205 201 195 190 189
256 264 265 261 258 258 261 264 273 289 300 300 294 287 283 284 287 290 294 297 299 300 299 296 296 301 303 303 305 309 309 306 306 306 303 302 306 310 311 313 314 311 305 297 290 291 293 294 297 298 301 307 312 322 337 346 348 339 321 307 300 288 275 273 271 257 238 227 223 218 209 206 205 204
252 252 247 250 255 264 274 279 281 289 298 300 297 293 289 287 287 290 293 296 297 297 295 293 293 297 298 299 303 306 304 301 301 301 298 296 298 301 302 303 307 309 306 296 287 288 292 290 290 293 296 299 303 312 324 336 345 344 331 312 300 293 284 275 268 258 243 233 228 224 220 216 214 213
237 244 250 259 268 279 287 288 289 293 296 295 294 295 295 292 291 292 294 296 296 295 292 291 292 294 294 296 301 303 302 299 299 298 295 294 295 296 296 296 299 304 306 296 284 283 286 284 283 287 289 290 294 301 310 321 336 343 339 323 305 294 285 274 266 258 248 240 235 231 226 221 217 213
235 245 255 262 272 283 287 286 289 294 295 293 293 295 296 295 294 294 294 294 294 292 291 291 291 291 291 294 298 300 298 296 295 295 294 293 294 295 294 294 295 298 300 293 282 280 280 278 278 280 281 283 286 292 299 309 322 333 337 329 314 302 291 277 266 258 252 245 240 237 231 225 220 214
230 237 245 260 276 285 285 284 285 288 290 291 292 293 295 295 294 293 292 291 290 290 290 290 290 289 289 291 293 295 296 294 292 292 292 292 293 294 294 295 296 296 294 285 277 275 275 274 273 272 272 276 280 284 289 296 308 320 328 326 316 309 301 288 271 259 252 245 240 239 235 228 223 216
229 235 250 269 280 283 283 282 281 282 283 285 288 291 293 293 291 289 290 290 290 290 289 289 289 289 289 290 291 293 294 293 291 290 290 291 290 291 292 294 295 294 289 281 274 274 273 271 270 271 271 272 274 275 278 282 292 308 320 323 321 317 312 302 287 269 252 242 239 236 231 228 226 222
236 248 263 274 279 279 278 277 276 278 282 286 291 294 293 292 290 289 290 291 291 290 288 287 287 288 289 290 290 292 292 291 291 291 291 292 292 292 294 295 295 292 285 280 277 274 268 263 264 269 271 269 266 266 265 269 280 292 303 318 332 332 321 311 303 292 274 254 248 239 226 226 230 231
245 258 269 275 278 276 274 275 277 283 290 296 300 301 299 296 294 294 295 294 294 293 291 290 290 289 290 290 291 292 291 290 290 290 289 290 292 295 296 296 296 295 291 284 278 272 267 261 259 262 267 264 258 255 254 258 268 275 274 289 331 338 321 307 298 293 287 274 256 241 230 227 229 233
250 262 270 273 273 272 276 281 287 294 300 304 308 310 307 304 303 304 303 302 302 300 298 298 298 297 297 296 296 295 293 292 290 287 285 284 284 286 287 287 290 296 298 290 276 270 268 265 261 256 256 257 252 247 247 248 248 252 257 270 302 323 308 294 285 281 279 271 257 242 234 229 225 226
253 260 263 265 269 277 286 293 299 305 308 311 315 316 313 312 315 316 314 315 315 314 312 310 307 306 306 306 305 302 299 298 298 298 296 294 291 289 289 290 292 296 301 296 283 274 266 262 264 260 252 250 247 243 245 241 230 221 235 259 271 276 275 273 272 270 268 264 257 246 234 227 220 218
249 252 256 264 277 288 297 306 314 315 317 320 324 330 334 337 339 341 343 344 344 342 338 332 327 325 327 328 326 321 313 308 311 314 314 312 304 296 295 299 300 300 303 301 296 291 280 264 262 263 255 247 242 242 248 252 244 228 224 246 260 259 247 242 248 254 257 259 258 252 240 228 219 215
239 247 257 274 291 301 312 327 336 339 346 353 359 6 12 17 23 26 25 20 13 7 4 4 5 8 8 5 0 352 338 323 319 319 319 317 310 303 302 307 311 310 309 306 300 298 290 269 257 260 257 247 243 244 249 255 251 240 230 239 253 257 245 232 231 236 243 249 252 252 247 237 225 220
227 238 254 279 308 339 13 33 42 43 41 38 39 40 40 40 39 35 29 23 18 16 17 21 27 30 29 26 23 20 13 358 339 328 323 319 313 309 309 314 319 316 312 311 305 296 282 256 245 254 256 253 255 257 254 248 241 234 234 240 243 240 229 222 224 231 235 239 243 245 246 242 235 229
188 195 189 136 111 99 87 79 71 64 58 55 52 50 46 44 41 36 29 24 22 22 21 22 27 32 31 28 28 28 28 24 16 8 360 350 342 334 327 327 331 328 324 326 323 310 293 265 241 237 245 256 265 266 257 245 232 227 235 244 243 235 227 220 221 227 230 233 240 247 247 243 239 235
154 158 141 121 113 103 92 85 79 72 66 61 56 50 46 44 39 32 27 25 24 21 17 18 25 30 29 28 29 28 27 25 20 19 18 15 11 6 359 353 351 348 346 347 343 332 325 312 285 267 267 271 274 277 268 250 236 232 237 245 246 243 239 238 239 242 239 231 230 253 272 268 256 249
140 136 131 124 112 102 97 90 82 75 72 68 59 50 45 40 33 26 22 20 19 19 14 13 20 28 28 29 32 31 28 26 21 18 17 16 14 13 10 7 4 0 358 358 354 347 344 336 316 302 298 292 288 288 275 252 241 240 241 243 244 244 243 244 244 244 244 241 236 251 273 284 279 270
133 130 134 128 113 105 101 93 86 86 86 74 56 44 39 33 29 25 21 17 15 18 19 16 21 28 28 27 28 29 28 26 24 21 20 17 12 8 5 3 2 1 359 358 358 355 350 341 327 312 303 293 283 282 283 267 250 245 247 247 246 247 248 250 251 238 236 242 246 253 265 281 287 286
154 152 147 135 121 112 106 100 100 101 91 65 46 39 33 26 25 25 22 17 12 10 15 19 21 23 23 22 23 24 23 21 22 25 25 18 9 3 359 357 355 353 350 348 350 351 344 336 331 326 324 315 297 290 296 293 276 263 257 248 239 239 243 246 250 245 236 240 244 247 253 263 271 278
173 171 159 142 126 116 113 111 111 106 87 66 51 37 23 18 20 21 18 13 9 11 17 20 20 20 19 19 19 18 14 10 9 14 17 12 4 359 357 355 351 347 345 343 341 339 335 331 329 329 334 341 336 316 306 297 290 288 277 256 244 245 249 252 251 242 233 235 237 237 241 248 255 266
160 161 155 144 134 128 127 127 124 112 101 96 65 23 13 11 11 12 12 10 9 15 20 19 20 20 16 12 8 5 2 2 2 4 2 358 356 355 353 352 350 347 345 342 338 336 334 333 331 324 321 322 321 311 299 291 289 291 288 275 266 263 264 267 259 241 230 229 230 233 240 247 251 257
151 149 146 146 148 148 148 152 158 158 148 142 82 10 8 4 3 9 16 16 14 16 17 13 10 6 357 352 350 350 350 351 353 355 354 351 351 351 348 345 344 345 345 342 337 337 337 336 334 325 313 308 305 303 302 299 295 292 288 285 284 282 278 271 260 245 236 233 231 235 241 245 245 249
150 149 147 152 163 168 170 177 186 190 179 165 124 12 7 5 7 13 15 12 10 10 8 3 358 353 349 349 350 350 349 347 344 345 345 344 346 346 344 342 341 339 337 334 330 328 327 328 329 325 319 313 308 304 303 302 299 298 296 293 291 293 290 277 260 248 241 237 234 235 239 241 240 243
136 144 147 152 164 172 174 176 177 172 164 161 13 357 1 6 8 7 3 358 357 357 356 357 358 358 359 1 3 3 2 0 357 353 349 345 343 341 340 341 342 338 334 331 327 325 323 324 325 326 325 324 319 313 308 305 302 298 297 298 297 299 300 293 274 255 245 239 236 236 238 241 244 248
125 129 135 139 147 156 161 162 157 147 141 86 349 352 357 1 2 1 357 355 354 354 355 356 359 2 4 7 8 8 8 7 6 4 2 358 353 349 345 342 338 333 328 325 322 320 320 320 320 320 320 321 324 325 322 317 311 303 296 293 292 294 297 298 290 277 264 257 254 254 256 259 261 263
109 107 119 128 131 136 138 133 119 101 44 4 360 359 358 360 0 360 1 2 1 358 355 355 358 2 5 4 3 2 2 2 2 3 4 2 360 357 355 350 344 337 329 323 318 316 315 315 315 315 317 319 324 330 334 331 324 313 300 291 286 284 283 286 288 289 288 284 280 278 277 275 273 271
92 92 106 116 118 118 112 92 68 35 12 6 2 358 357 358 359 1 7 10 5 359 356 357 359 1 1 359 357 356 356 356 356 356 356 356 356 356 355 354 353 350 344 335 329 325 323 321 321 322 324 326 329 330 332 334 330 315 300 288 283 280 279 281 284 287 291 293 292 287 279 274 270 266
75 65 66 77 78 66 52 43 27 11 5 359 354 352 354 354 354 359 6 5 0 359 360 359 357 357 356 354 352 351 351 351 350 350 350 351 352 352 352 352 352 350 349 346 341 337 335 334 334 334 333 335 336 335 333 335 333 316 300 291 283 279 277 280 288 294 292 290 290 283 270 261 254 240
55 42 37 41 41 30 23 16 3 352 348 345 343 342 344 345 347 353 356 354 353 355 356 354 352 351 350 348 347 347 347 346 345 344 345 346 346 347 347 347 345 344 343 342 339 337 337 335 336 339 341 343 345 343 341 341 348 351 333 320 308 297 285 276 276 287 294 293 300 298 275 259 249 220
47 37 30 28 21 9 357 348 339 335 332 331 330 330 333 337 340 343 345 346 346 347 346 345 345 345 344 345 345 344 343 341 340 340 340 339 339 340 340 339 339 339 338 335 332 330 329 328 330 336 340 341 344 345 343 342 347 14 10 352 341 334 319 279 243 228 320 331 345 359 335 290 266 249
42 33 20 4 351 341 336 334 332 331 328 327 327 327 330 332 333 336 339 341 340 340 339 339 341 341 341 342 340 338 337 336 336 336 336 334 334 334 334 332 332 331 331 330 327 325 325 325 327 327 326 327 331 334 335 333 325 303 316 342 345 340 328 301 269 309 342 356 17 26 16 357 324 294
52 45 32 357 337 330 330 331 328 325 323 321 321 321 323 324 327 331 334 333 332 330 330 331 332 332 332 332 331 329 329 328 329 331 331 329 330 330 328 326 324 323 324 323 321 322 325 327 326 322 315 310 313 318 324 329 325 309 298 301 324 342 325 288 270 291 325 354 12 15 15 8 352 342
77 49 25 328 317 318 319 318 315 312 310 309 310 312 316 320 324 325 323 320 320 321 322 325 326 326 326 326 325 325 324 323 324 326 325 324 324 324 323 321 320 319 319 317 315 316 319 320 321 319 312 307 309 316 324 332 334 331 325 317 312 314 305 280 267 277 286 298 325 342 358 357 345 342
22 333 304 292 295 299 301 300 299 302 305 310 314 319 322 324 324 322 320 321 323 325 326 327 327 326 326 325 325 325 325 324 324 324 322 320 318 317 317 317 315 315 315 313 310 306 305 307 311 315 316 317 316 319 327 333 332 335 340 337 323 301 278 266 264 268 270 272 284 286 259 248 285 308
322 296 281 282 290 297 300 305 310 317 322 326 328 327 325 324 324 325 325 327 327 326 326 326 325 326 326 325 325 326 327 326 325 323 320 316 312 310 311 311 311 312 313 313 312 310 308 307 307 308 313 320 320 319 325 330 324 322 330 335 333 323 304 282 270 264 262 260 260 258 248 242 246 255
7 342 327 322 322 322 324 327 328 329 328 325 323 322 322 322 323 323 324 325 324 324 324 324 324 325 325 325 325 326 327 325 322 319 316 314 310 307 309 310 311 312 315 317 320 321 320 319 316 311 308 308 310 317 329 333 329 327 325 322 325 330 329 322 306 283 266 258 256 253 248 245 244 246
Height
1581 1581 1581 1580 1580 1579 1579 1578 1578 1578 1578 1577 1576 1576 1575 1574 1573 1572 1571 1570 1570 1570 1569 1568 1566 1565 1565 1563 1563 1562 1561 1560 1559 1559 1558 1557 1557 1556 1555 1553 1552 1551 1550 1549 1548 1546 1544 1542 1541 1540 1539 1538 1537 1536 1535 1534 1533 1532 1531 1530 1528 1527 1526 1525 1523 1523 1522 1521 1521 1521 1521 1520 1520 1520
1580 1580 1579 1579 1578 1578 1578 1577 1577 1577 1577 1576 1576 1576 1575 1574 1573 1573 1572 1570 1570 1569 1568 1567 1566 1565 1564 1563 1562 1561 1560 1559 1559 1558 1557 1556 1556 1555 1554 1553 1552 1551 1550 1549 1548 1546 1544 1543 1541 1539 1538 1537 1537 1536 1535 1534 1533 1532 1531 1530 1529 1528 1527 1526 1525 1524 1523 1523 1522 1522 1522 1522 1522 1521
1579 1579 1578 1578 1578 1577 1577 1577 1577 1576 1576 1575 1575 1575 1574 1574 1573 1572 1571 1570 1569 1569 1568 1567 1565 1564 1563 1562 1561 1560 1560 1559 1558 1557 1556 1556 1555 1554 1553 1552 1551 1550 1549 1548 1547 1546 1544 1543 1541 1539 1538 1537 1536 1535 1534 1533 1532 1532 1531 1531 1530 1529 1528 1527 1526 1525 1525 1524 1523 1523 1523 1523 1523 1523
1578 1578 1578 1577 1577 1577 1577 1576 1576 1575 1575 1575 1574 1574 1573 1573 1572 1572 1571 1570 1569 1568 1567 1566 1565 1564 1563 1562 1561 1560 1559 1558 1557 1557 1556 1555 1554 1553 1552 1551 1550 1549 1548 1547 1547 1545 1544 1543 1541 1539 1538 1537 1536 1535 1534 1533 1532 1532 1531 1531 1530 1529 1528 1527 1527 1526 1526 1525 1524 1524 1524 1524 1524 1524
1578 1577 1577 1577 1576 1576 1576 1575 1575 1574 1574 1574 1573 1573 1572 1571 1571 1571 1570 1569 1567 1567 1567 1566 1565 1564 1562 1561 1560 1559 1558 1558 1557 1556 1555 1554 1553 1553 1552 1550 1549 1548 1547 1547 1546 1545 1544 1542 1541 1539 1538 1536 1535 1534 1533 1533 1532 1532 1531 1530 1530 1529 1529 1528 1527 1527 1526 1526 1525 1525 1525 1525 1525 1525
1577 1577 1576 1576 1575 1575 1575 1574 1574 1573 1573 1573 1572 1572 1571 1571 1570 1570 1569 1568 1567 1566 1566 1565 1564 1563 1562 1561 1560 1558 1557 1557 1556 1555 1554 1553 1552 1552 1551 1550 1549 1547 1547 1546 1545 1544 1543 1542 1541 1539 1538 1536 1535 1534 1533 1532 1532 1531 1531 1530 1530 1529 1529 1528 1528 1527 1527 1527 1526 1526 1525 1525 1525 1526
1576 1576 1575 1575 1574 1574 1574 1573 1573 1572 1572 1572 1571 1571 1570 1570 1569 1569 1568 1567 1566 1565 1564 1564 1563 1562 1561 1560 1559 1558 1557 1555 1555 1554 1553 1552 1551 1550 1550 1549 1548 1547 1546 1545 1544 1543 1542 1541 1540 1539 1538 1536 1535 1534 1532 1532 1531 1531 1531 1530 1530 1529 1529 1528 1528 1527 1527 1527 1527 1527 1526 1526 1526 1526
1575 1575 1574 1574 1574 1573 1573 1572 1572 1571 1571 1571 1570 1570 1569 1569 1568 1568 1567 1566 1566 1564 1563 1562 1562 1561 1560 1559 1558 1557 1556 1555 1554 1553 1552 1551 1550 1549 1548 1548 1547 1546 1545 1544 1543 1542 1541 1540 1539 1538 1537 1536 1535 1534 1532 1531 1530 1530 1530 1530 1529 1529 1528 1528 1528 1527 1527 1527 1527 1527 1527 1527 1526 1526
1574 1574 1574 1573 1573 1573 1572 1572 1571 1571 1570 1570 1569 1569 1568 1568 1567 1567 1566 1565 1565 1563 1562 1561 1561 1560 1559 1558 1558 1556 1555 1554 1554 1553 1552 1551 1549 1548 1547 1546 1545 1544 1544 1543 1542 1541 1540 1539 1538 1538 1537 1536 1535 1534 1532 1531 1530 1529 1529 1529 1529 1528 1528 1528 1527 1527 1527 1526 1526 1526 1526 1527 1527 1527
1573 1573 1573 1573 1572 1572 1572 1571 1570 1570 1569 1569 1568 1568 1567 1567 1566 1565 1565 1564 1563 1562 1561 1560 1559 1559 1558 1557 1556 1556 1554 1553 1552 1552 1551 1550 1549 1547 1546 1545 1544 1543 1542 1541 1540 1539 1539 1538 1537 1536 1536 1535 1534 1533 1532 1531 1529 1528 1528 1528 1527 1527 1527 1527 1527 1527 1526 1526 1526 1526 1526 1526 1526 1526
1572 1572 1572 1572 1571 1571 1570 1570 1569 1569 1569 1568 1568 1567 1566 1565 1565 1564 1563 1563 1561 1560 1559 1559 1558 1557 1557 1556 1555 1554 1553 1552 1551 1550 1549 1548 1547 1546 1545 1544 1542 1541 1540 1539 1538 1538 1537 1536 1536 1535 1535 1534 1533 1532 1532 1530 1529 1528 1527 1527 1526 1526 1526 1526 1526 1526 1526 1525 1525 1526 1526 1526 1526 1526
1571 1571 1571 1570 1570 1570 1569 1569 1568 1568 1568 1567 1567 1566 1565 1564 1563 1562 1562 1561 1560 1559 1558 1557 1556 1555 1554 1554 1553 1552 1551 1550 1549 1548 1546 1545 1545 1544 1543 1543 1541 1539 1538 1537 1536 1536 1535 1535 1535 1534 1533 1533 1532 1532 1531 1530 1529 1528 1527 1526 1525 1525 1525 1524 1524 1524 1524 1524 1524 1524 1525 1525 1525 1525
1569 1569 1569 1569 1568 1568 1568 1568 1567 1567 1567 1566 1566 1565 1564 1563 1562 1561 1560 1559 1558 1557 1556 1555 1554 1553 1552 1551 1551 1550 1549 1548 1547 1546 1544 1543 1542 1541 1540 1540 1540 1538 1537 1536 1535 1535 1534 1534 1533 1532 1532 1531 1531 1530 1530 1529 1528 1527 1526 1525 1525 1524 1524 1523 1523 1523 1523 1523 1522 1523 1523 1523 1524 1524
1567 1567 1567 1567 1567 1567 1567 1567 1566 1566 1565 1564 1564 1563 1562 1561 1560 1559 1558 1557 1556 1555 1554 1553 1552 1551 1549 1549 1549 1548 1547 1546 1545 1544 1542 1541 1540 1539 1538 1538 1538 1537 1535 1535 1534 1533 1533 1532 1531 1531 1530 1530 1529 1529 1529 1528 1528 1527 1526 1524 1523 1523 1522 1522 1522 1522 1521 1521 1521 1521 1521 1521 1522 1522
1566 1566 1566 1566 1566 1566 1565 1565 1565 1564 1564 1563 1562 1561 1560 1559 1558 1557 1555 1554 1554 1553 1552 1551 1550 1549 1547 1547 1546 1546 1545 1544 1543 1542 1541 1539 1538 1537 1536 1535 1535 1535 1534 1533 1532 1531 1531 1530 1529 1529 1529 1528 1528 1528 1527 1527 1527 1526 1525 1524 1522 1522 1521 1521 1520 1520 1520 1520 1520 1520 1520 1520 1520 1520
1564 1564 1565 1565 1564 1564 1564 1563 1563 1562 1562 1561 1560 1560 1558 1557 1556 1554 1553 1551 1551 1550 1549 1548 1548 1547 1545 1545 1544 1543 1542 1541 1540 1539 1538 1537 1536 1535 1534 1533 1532 1532 1532 1530 1529 1529 1528 1528 1527 1526 1526 1527 1526 1526 1526 1525 1525 1525 1524 1523 1522 1521 1520 1519 1519 1519 1519 1519 1518 1519 1519 1519 1519 1519
1563 1563 1563 1563 1562 1562 1562 1561 1561 1560 1560 1559 1558 1558 1556 1555 1554 1552 1551 1550 1548 1548 1547 1546 1545 1545 1543 1542 1541 1541 1540 1538 1537 1536 1535 1535 1534 1532 1531 1530 1529 1529 1529 1528 1527 1526 1525 1525 1525 1524 1524 1524 1524 1524 1524 1524 1524 1523 1523 1522 1521 1520 1519 1518 1518 1518 1518 1518 1517 1517 1518 1518 1519 1519
1561 1561 1561 1561 1560 1560 1560 1559 1559 1558 1558 1557 1556 1555 1554 1553 1552 1550 1549 1548 1547 1546 1545 1543 1543 1542 1541 1539 1538 1538 1537 1535 1534 1533 1532 1532 1531 1530 1529 1527 1526 1526 1526 1526 1524 1522 1522 1522 1522 1522 1522 1522 1522 1522 1523 1523 1523 1522 1522 1521 1520 1520 1519 1518 1517 1517 1516 1516 1517 1516 1517 1517 1518 1518
1560 1560 1559 1559 1558 1558 1558 1557 1557 1556 1556 1555 1554 1553 1552 1551 1550 1549 1548 1546 1545 1544 1543 1542 1540 1539 1538 1537 1535 1535 1533 1532 1531 1531 1530 1529 1528 1527 1526 1525 1524 1524 1524 1523 1521 1519 1518 1519 1519 1519 1519 1519 1519 1520 1521 1520 1520 1520 1520 1520 1519 1519 1518 1518 1517 1516 1516 1516 1516 1516 1516 1516 1516 1517
1558 1558 1558 1557 1557 1556 1556 1555 1555 1554 1554 1553 1552 1552 1551 1550 1549 1547 1546 1545 1544 1543 1541 1540 1538 1537 1536 1535 1533 1532 1530 1529 1529 1528 1527 1526 1525 1524 1523 1521 1522 1522 1521 1520 1519 1517 1517 1517 1516 1516 1517 1517 1517 1518 1518 1517 1517 1517 1518 1518 1518 1518 1517 1517 1517 1516 1516 1515 1515 1515 1515 1515 1515 1516
1556 1556 1556 1556 1555 1555 1554 1554 1553 1552 1552 1551 1551 1550 1549 1549 1548 1547 1546 1545 1543 1542 1540 1539 1537 1536 1535 1534 1532 1530 1529 1528 1527 1526 1525 1525 1524 1523 1522 1520 1520 1520 1520 1519 1518 1516 1516 1516 1515 1514 1514 1515 1515 1516 1516 1516 1516 1515 1516 1517 1517 1516 1516 1516 1516 1516 1516 1515 1515 1515 1515 1515 1515 1515
1554 1555 1555 1555 1554 1553 1553 1552 1552 1551 1551 1550 1550 1549 1548 1547 1547 1546 1546 1545 1544 1542 1541 1539 1538 1536 1535 1534 1532 1530 1528 1528 1527 1526 1525 1524 1523 1522 1521 1520 1519 1519 1518 1518 1516 1515 1514 1514 1513 1513 1513 1513 1514 1514 1515 1515 1516 1515 1516 1516 1516 1516 1515 1515 1515 1515 1515 1515 1515 1515 1514 1514 1514 1514
1552 1553 1554 1553 1553 1552 1552 1551 1551 1550 1550 1550 1549 1549 1548 1547 1546 1546 1546 1545 1543 1542 1541 1539 1538 1537 1535 1534 1532 1531 1529 1528 1527 1526 1525 1524 1523 1522 1521 1520 1519 1518 1517 1517 1516 1514 1513 1512 1512 1512 1512 1513 1513 1513 1514 1514 1515 1515 1515 1516 1515 1515 1514 1514 1513 1513 1513 1513 1513 1514 1514 1514 1514 1514
1551 1552 1553 1552 1552 1552 1551 1551 1550 1550 1550 1550 1549 1549 1548 1547 1546 1546 1545 1544 1543 1542 1541 1539 1538 1537 1535 1534 1533 1531 1530 1528 1528 1527 1525 1524 1523 1522 1522 1520 1519 1518 1517 1516 1515 1514 1513 1512 1512 1512 1513 1513 1513 1513 1513 1513 1514 1514 1515 1515 1514 1514 1513 1513 1512 1512 1512 1512 1512 1512 1512 1512 1513 1513
1550 1551 1552 1552 1552 1551 1550 1550 1550 1550 1550 1550 1550 1549 1548 1548 1547 1546 1545 1544 1544 1543 1542 1540 1539 1537 1536 1535 1533 1532 1531 1529 1528 1527 1526 1525 1524 1523 1522 1521 1519 1519 1518 1517 1516 1515 1514 1514 1513 1513 1513 1513 1513 1512 1512 1513 1513 1513 1514 1513 1513 1512 1512 1512 1512 1511 1511 1511 1511 1511 1511 1511 1511 1511
1550 1551 1551 1551 1551 1551 1550 1550 1550 1550 1551 1550 1550 1549 1549 1548 1548 1547 1546 1545 1544 1543 1542 1541 1539 1537 1536 1535 1534 1533 1531 1530 1529 1528 1527 1526 1525 1524 1523 1521 1520 1519 1518 1517 1517 1516 1515 1515 1514 1514 1514 1514 1513 1512 1512 1512 1512 1512 1513 1513 1512 1512 1511 1511 1510 1510 1510 1510 1510 1510 1510 1509 1509 1509
1550 1551 1551 1551 1551 1551 1550 1550 1550 1550 1551 1550 1550 1550 1549 1549 1548 1547 1546 1545 1545 1544 1542 1541 1539 1538 1537 1536 1535 1534 1532 1531 1530 1530 1529 1528 1527 1525 1524 1523 1522 1521 1520 1519 1518 1517 1516 1516 1516 1515 1515 1514 1514 1513 1512 1512 1512 1512 1512 1512 1511 1511 1510 1509 1508 1509 1510 1510 1510 1509 1509 1508 1508 1508
1549 1550 1550 1551 1551 1551 1550 1550 1550 1550 1550 1550 1550 1550 1549 1549 1548 1547 1546 1546 1545 1544 1543 1541 1540 1539 1538 1537 1536 1535 1534 1533 1532 1531 1530 1529 1528 1527 1526 1524 1523 1522 1521 1520 1519 1518 1518 1517 1516 1516 1515 1515 1514 1513 1512 1512 1512 1512 1511 1510 1510 1509 1508 1508 1508 1508 1509 1509 1509 1509 1508 1508 1507 1506
1549 1549 1550 1551 1551 1551 1551 1550 1550 1550 1550 1551 1551 1550 1550 1549 1548 1548 1547 1546 1546 1544 1543 1542 1542 1541 1540 1539 1538 1537 1536 1535 1533 1532 1531 1530 1529 1528 1527 1525 1524 1523 1522 1521 1520 1519 1518 1517 1517 1516 1515 1514 1514 1513 1512 1512 1512 1511 1510 1509 1509 1508 1508 1507 1507 1507 1507 1508 1508 1508 1507 1507 1506 1506
1548 1549 1550 1551 1551 1551 1551 1550 1550 1550 1550 1551 1551 1551 1550 1550 1549 1549 1548 1547 1546 1545 1544 1544 1543 1542 1541 1540 1539 1538 1536 1535 1533 1532 1531 1530 1529 1528 1527 1525 1524 1523 1522 1521 1520 1519 1519 1518 1517 1516 1516 1515 1514 1513 1512 1512 1511 1511 1510 1509 1508 1508 1507 1507 1506 1506 1506 1506 1506 1505 1505 1505 1505 1505
1547 1548 1549 1550 1550 1550 1550 1550 1550 1550 1550 1551 1551 1551 1551 1551 1550 1549 1549 1548 1547 1546 1545 1545 1544 1543 1542 1540 1539 1538 1536 1534 1533 1532 1531 1530 1529 1528 1526 1525 1524 1522 1522 1521 1520 1519 1518 1518 1517 1516 1515 1514 1513 1513 1512 1512 1511 1510 1509 1508 1508 1507 1506 1506 1505 1504 1504 1504 1504 1503 1503 1503 1504 1504
1547 1547 1548 1549 1549 1549 1550 1550 1549 1550 1550 1551 1551 1552 1552 1551 1551 1551 1550 1549 1548 1547 1546 1546 1544 1543 1542 1540 1539 1537 1536 1534 1533 1532 1531 1530 1529 1527 1526 1524 1523 1522 1521 1520 1519 1518 1517 1517 1515 1515 1514 1513 1512 1512 1511 1511 1510 1509 1508 1507 1506 1505 1505 1505 1504 1503 1503 1503 1502 1501 1501 1501 1502 1502
1547 1547 1548 1548 1548 1548 1549 1549 1549 1550 1551 1551 1551 1551 1551 1551 1551 1551 1550 1549 1547 1546 1546 1545 1544 1542 1541 1540 1538 1537 1536 1534 1533 1532 1530 1529 1528 1527 1526 1525 1523 1522 1521 1519 1518 1517 1516 1515 1514 1513 1512 1511 1511 1510 1509 1508 1508 1507 1506 1505 1504 1504 1503 1503 1503 1502 1502 1501 1501 1500 1499 1499 1499 1500
1548 1548 1548 1549 1549 1549 1549 1550 1550 1551 1551 1552 1551 1551 1551 1551 1550 1550 1549 1548 1547 1546 1546 1545 1544 1542 1541 1540 1538 1537 1536 1535 1534 1532 1531 1530 1528 1527 1526 1524 1523 1522 1521 1519 1518 1516 1515 1515 1513 1512 1511 1510 1509 1508 1507 1506 1505 1504 1503 1503 1502 1502 1502 1502 1501 1501 1501 1500 1499 1499 1498 1497 1497 1497
1549 1549 1549 1550 1550 1550 1550 1551 1551 1552 1552 1552 1551 1551 1550 1550 1549 1549 1548 1547 1547 1547 1546 1545 1544 1543 1541 1540 1539 1538 1536 1535 1534 1533 1531 1530 1528 1527 1525 1524 1523 1521 1520 1518 1517 1516 1514 1513 1512 1510 1509 1508 1508 1507 1506 1505 1503 1502 1501 1500 1500 1499 1500 1500 1499 1499 1499 1499 1499 1498 1497 1496 1495 1495
1550 1550 1550 1551 1551 1551 1551 1551 1552 1552 1552 1552 1551 1551 1550 1550 1549 1548 1548 1547 1547 1547 1546 1545 1544 1543 1542 1540 1539 1538 1536 1535 1533 1532 1531 1529 1528 1527 1525 1524 1522 1521 1519 1518 1516 1515 1513 1512 1510 1509 1507 1506 1505 1504 1504 1504 1502 1500 1499 1498 1498 1497 1498 1498 1497 1497 1497 1497 1497 1497 1495 1494 1494 1493
1551 1551 1551 1552 1552 1552 1552 1552 1552 1552 1552 1551 1551 1551 1550 1549 1548 1548 1548 1547 1547 1546 1545 1544 1543 1542 1541 1540 1539 1537 1536 1534 1533 1531 1530 1529 1527 1526 1525 1523 1522 1520 1519 1517 1516 1514 1513 1511 1510 1508 1506 1505 1503 1502 1502 1502 1501 1499 1498 1497 1497 1496 1497 1497 1496 1496 1496 1496 1496 1495 1494 1493 1493 1492
1551 1551 1551 1552 1552 1552 1552 1553 1553 1552 1552 1551 1551 1550 1550 1549 1548 1548 1548 1547 1546 1545 1544 1543 1542 1541 1540 1539 1538 1537 1535 1534 1532 1531 1529 1528 1527 1525 1524 1523 1521 1520 1519 1517 1516 1514 1512 1511 1510 1508 1507 1505 1504 1502 1500 1500 1499 1498 1497 1497 1496 1495 1495 1495 1495 1495 1495 1495 1494 1494 1492 1492 1492 1491
1552 1552 1552 1552 1552 1553 1553 1553 1553 1552 1552 1551 1551 1550 1549 1549 1548 1548 1547 1546 1545 1545 1543 1542 1541 1540 1539 1538 1536 1535 1534 1533 1531 1530 1529 1527 1526 1525 1523 1522 1520 1519 1518 1517 1515 1514 1512 1511 1510 1509 1507 1506 1505 1503 1501 1500 1499 1498 1497 1497 1496 1495 1494 1494 1494 1494 1494 1494 1493 1493 1492 1491 1491 1490
1552 1552 1552 1553 1553 1553 1553 1553 1552 1552 1551 1551 1550 1549 1549 1548 1547 1546 1546 1545 1544 1543 1542 1541 1540 1539 1537 1536 1535 1534 1533 1532 1530 1529 1528 1526 1525 1524 1523 1521 1520 1518 1517 1515 1514 1513 1512 1510 1509 1509 1508 1506 1505 1504 1502 1500 1499 1498 1497 1496 1495 1494 1494 1494 1493 1494 1493 1493 1492 1492 1491 1491 1490 1490
1553 1553 1553 1553 1553 1553 1553 1553 1552 1552 1551 1550 1549 1549 1548 1547 1546 1545 1544 1543 1543 1542 1541 1540 1539 1538 1537 1536 1534 1533 1531 1530 1529 1528 1526 1525 1524 1523 1522 1520 1519 1517 1516 1514 1513 1512 1511 1510 1509 1508 1508 1506 1505 1503 1502 1500 1498 1497 1496 1495 1494 1493 1493 1493 1493 1493 1492 1492 1492 1491 1491 1490 1490 1490
1553 1553 1553 1553 1553 1553 1552 1552 1552 1551 1550 1550 1549 1548 1547 1546 1545 1544 1544 1543 1542 1541 1540 1539 1538 1537 1536 1535 1533 1532 1530 1529 1528 1527 1525 1524 1522 1522 1521 1519 1517 1516 1515 1513 1512 1511 1510 1509 1508 1507 1506 1505 1504 1503 1502 1500 1499 1497 1496 1495 1494 1493 1492 1492 1492 1492 1492 1491 1491 1491 1491 1490 1490 1490
1553 1553 1553 1553 1552 1552 1552 1551 1551 1550 1549 1549 1548 1547 1546 1545 1544 1544 1543 1542 1541 1540 1539 1538 1537 1536 1534 1533 1532 1530 1528 1527 1526 1525 1524 1522 1521 1520 1519 1518 1516 1515 1514 1513 1511 1510 1509 1508 1507 1506 1505 1504 1503 1502 1501 1500 1499 1497 1496 1495 1493 1492 1492 1491 1491 1491 1491 1491 1491 1490 1490 1490 1490 1489
1553 1553 1552 1552 1552 1552 1551 1551 1550 1549 1548 1548 1547 1546 1545 1544 1543 1542 1541 1540 1539 1538 1537 1536 1535 1534 1533 1531 1530 1528 1527 1525 1524 1523 1522 1521 1520 1519 1518 1517 1515 1514 1513 1511 1510 1509 1507 1506 1506 1505 1504 1503 1502 1501 1500 1499 1498 1497 1496 1495 1493 1492 1492 1491 1490 1490 1490 1490 1490 1489 1489 1489 1489 1489
1552 1552 1552 1552 1551 1551 1550 1550 1549 1548 1547 1546 1545 1545 1544 1543 1542 1541 1540 1538 1537 1536 1535 1534 1533 1532 1531 1529 1528 1526 1525 1524 1522 1521 1520 1519 1518 1517 1516 1515 1514 1513 1512 1510 1509 1507 1506 1505 1504 1503 1502 1501 1501 1500 1499 1498 1497 1496 1495 1494 1493 1492 1491 1491 1490 1489 1489 1488 1488 1488 1488 1488 1488 1488